SCP
0 0 0 -0 -0 -0 -0 -0 -0 -0 -0 -0 -0 -0 -0 -0 -0 -0 -0 -0 -0 -0 0 0 0 0 0 0 0 0 0 0 0 0 0 -0 -0 0 0 -0 0 0 0 -0 -0
0 0 0 0 -0 -0 -0 -0 -0 -0 -0 -0 -0 -0 -0 -0 -0 -0 -0 -0 -0 -0 0 0 0 0 0 0 0 0 0 0 0 0 0 -0 -0 -0 0 -0 0 -0 -0 -0 -0
0 0 0 0 -0 -0 -0 -0 -0 -0 -0 -0 -0 -0 -0 0 -0 -0 -0 0 -0 0 0 0 0 0 0 0 0 0 0 0 0 0 0 0 -0 0 -0 -0 0 -0 -0 -0 -0
0 0 0 0 -0 -0 -0 -0 -0 -0 -0 -0 -0 -0 -0 -0 0 -0 -0 0 -0 -0 -0 0 0 0 0 0 0 0 0 0 0 0 0 0 -0 0 -0 0 -0 -0 -0 -0 -0
0 0 0 0 0 -0 -0 -0 -0 -0 -0 -0 0 0 -0 -0 -0 0 0 0 0 -0 -0 -0 -0 0 0 0 0 0 0 0 0 0 0 0 0 0 0 0 -0 -0 -0 -0 -0
0 0 0 0 0 -0 -0 -0 -0 -0 -0 0 0 0 -0 -0 -0 -0 0 0 0 0 -0 -0 -0 0 -0 0 -0 0 0 0 0 0 0 0 0 0 0 -0 -0 -0 -0 -0 -0
0 0 0 0 0 -0 -0 -0 -0 -0 0 -0 -0 0 0 -0 -0 -0 0 -0 -0 0 0 -0 -0 0 -0 -0 0 0 0 0 0 0 0 0 0 0 -0 -0 -0 -0 -0 -0 -0
0 0 0 0 0 -0 -0 -0 -0 0 -0 0 0 0 0 -0 -0 -0 -0 -0 0 0 0 -0 -0 0 -0 -0 0 0 0 0 0 0 0 0 0 -0 -0 -0 -0 -0 -0 0 -0
0 0 0 0 -0 -0 -0 -0 0 0 0 0 0 0 0 0 -0 0 0 0 0 0 0 -0 -0 0 0 -0 -0 0 0 0 0 0 0 0 0 -0 -0 -0 -0 -0 -0 -0 0
0 0 0 0 0 -0 -0 -0 0 0 0 0 0 0 0 0 0 0 0 0 -0 0 0 0 -0 0 0 0 0 -0 -0 0 0 0 0 0 0 -0 -0 -0 -0 -0 -0 -0 -0
0 0 0 0 0 -0 0 0 0 0 0 0 0 0 0 0 0 0 0 -0 -0 0 -0 0 0 0 0 0 -0 0 -0 -0 -0 0 0 0 0 -0 -0 -0 -0 -0 -0 -0 -0
0 0 0 0 0 0 0 0 0 0 0 0 0 -0 0 0 0 0 0 0 0 -0 0 -0 0 -0 -0 0 0 -0 -0 -0 -0 0 0 0 0 0 -1 -1 -0 -0 -0 -0 -0
0 0 0 0 -0 0 0 0 0 0 0 0 0 0 0 0 0 0 0 0 0 0 -0 -0 -0 -0 -0 -0 0 -0 -0 -0 -0 -0 0 -0 0 0 -0 -0 -0 -0 -0 -0 -0
0 0 0 -0 0 0 0 0 0 -0 0 0 0 0 0 0 0 0 0 0 0 0 0 -0 -0 -0 -0 -0 -0 -0 -0 0 -0 -0 0 -0 0 0 0 -0 -0 -0 -0 -0 -0
0 0 0 0 0 0 0 0 0 0 0 0 0 0 0 0 0 0 0 0 0 0 0 0 -0 -0 0 -0 -0 -0 -0 -0 -0 -0 -0 0 0 0 0 -0 -0 -0 -0 -0 -0
-0 -0 0 0 0 0 0 0 0 0 0 0 0 0 0 0 0 0 0 0 0 0 0 -0 0 0 -0 0 -0 0 0 0 -0 -0 -0 0 0 0 0 -0 -0 -0 -0 -0 -0
-0 -0 0 0 0 0 0 0 0 0 0 0 0 0 0 0 0 0 0 0 0 0 0 0 -0 0 0 -0 0 0 0 0 0 0 -0 0 -0 -0 0 0 0 -0 -0 -0 -0
-0 -0 0 0 -0 0 0 0 0 0 0 0 0 0 0 0 0 0 0 0 0 0 0 0 0 0 0 -0 0 0 0 0 0 0 0 -0 -0 -0 0 0 -0 0 0 -0 0
-0 0 0 0 0 0 0 0 0 0 0 0 0 0 0 0 0 0 0 0 0 0 0 0 0 0 0 0 0 0 0 0 0 0 0 0 -0 -0 0 -0 -0 -0 0 0 0
0 0 0 0 0 0 0 0 0 0 0 0 0 0 0 0 0 0 0 0 0 0 0 0 0 0 0 0 0 0 0 0 0 0 -0 0 0 -0 -0 0 0 -0 0 0 -0
0 0 0 0 0 0 0 0 0 0 0 0 0 0 0 0 0 0 0 0 0 0 0 0 0 0 0 0 0 0 0 0 0 0 0 0 0 0 -0 0 -0 -0 -0 -0 0
0 0 0 0 0 0 0 0 0 0 0 0 0 0 0 0 0 0 0 0 0 0 0 0 0 0 0 0 0 0 0 0 0 0 0 0 0 0 0 0 -0 -0 0 -0 -0
0 0 0 0 0 0 0 0 0 0 0 0 0 0 0 0 0 0 0 0 0 0 0 0 0 0 0 0 0 0 0 0 0 0 0 0 -0 0 -0 0 0 0 -0 0 0
0 0 0 0 0 0 0 0 0 0 0 0 0 0 0 0 0 0 0 0 0 0 0 0 0 0 0 0 0 0 0 0 0 0 0 0 0 0 0 0 0 0 0 0 0
0 0 0 0 0 0 0 0 0 0 0 0 0 0 0 0 0 0 0 0 0 0 0 0 0 0 0 0 0 0 0 0 0 0 0 0 0 0 0 -0 0 0 0 0 0
0 0 0 0 0 0 0 0 0 0 0 0 0 0 0 0 0 0 0 0 0 0 0 0 0 0 0 0 0 0 0 0 0 0 0 0 0 0 0 0 0 0 0 0 0
0 0 0 0 0 0 0 0 0 0 0 0 0 0 0 0 0 0 0 0 0 0 0 0 0 0 0 0 0 0 0 0 0 0 0 0 0 0 0 0 0 0 0 0 0
Wind_Speed_500mb
23 23 23 23 23 23 23 23 24 24 26 25 24 26 25 22 19 24 31 21 7 13 15 11 11 4 11 3 4 5 3 3 3 6 8 25 10 12 16 30 9 5 20 37 54
25 26 26 26 26 26 26 25 25 25 25 25 24 25 25 23 22 24 22 24 14 15 14 6 5 6 4 3 1 1 2 5 2 1 5 28 16 27 12 33 14 30 37 57 57
26 28 29 29 29 29 28 28 28 27 25 25 23 23 23 21 11 2 16 18 16 17 15 9 3 4 3 3 5 5 3 5 5 7 8 13 25 16 22 22 19 45 55 57 56
29 30 30 31 31 32 31 30 29 29 26 25 22 21 21 14 2 4 10 22 22 19 16 8 2 1 5 5 5 6 12 15 10 3 7 12 28 17 26 4 25 52 66 60 57
30 30 32 33 34 33 32 32 30 28 26 24 21 18 18 9 9 3 11 24 22 20 15 6 2 4 10 6 3 8 7 4 5 5 8 26 17 8 18 6 40 53 58 60 55
32 33 34 35 36 36 33 32 31 28 24 21 18 16 13 9 6 5 14 21 18 18 16 15 2 7 16 5 8 8 14 6 2 16 21 22 14 15 10 31 46 56 55 56 53
34 35 36 37 38 37 34 32 29 25 21 17 16 14 19 21 7 12 21 16 11 7 14 16 16 13 19 18 6 10 3 7 7 10 6 21 9 12 31 36 46 48 51 51 49
35 36 36 38 39 38 33 27 21 20 13 12 13 13 10 7 20 19 24 19 13 12 11 10 12 14 9 18 9 6 3 8 4 7 8 7 3 8 34 42 40 43 49 45 46
38 38 36 37 37 34 25 26 14 15 7 10 11 10 7 10 15 21 24 16 11 14 16 6 7 7 5 8 4 7 15 19 8 8 8 11 1 17 34 33 37 42 46 50 46
40 39 36 36 36 24 24 16 14 9 4 10 17 7 11 12 6 17 21 23 14 8 8 9 8 7 5 4 8 18 17 12 14 5 10 9 13 23 36 37 38 42 43 48 49
41 40 36 33 34 18 19 9 9 5 16 14 4 7 12 11 13 17 22 28 24 11 13 11 12 20 10 4 4 10 16 24 21 4 6 6 10 25 35 40 41 42 45 47 51
43 41 36 29 27 15 10 10 15 16 19 22 31 42 38 16 7 17 22 21 15 21 7 11 29 13 8 9 7 9 18 23 9 4 5 5 21 25 39 51 56 55 49 50 48
45 43 36 25 15 14 1 14 25 21 7 12 8 10 8 31 14 15 32 21 10 16 16 28 11 11 7 5 10 13 14 21 19 2 5 17 14 8 22 39 45 49 53 52 54
45 45 37 21 2 15 3 16 26 12 5 3 1 1 7 11 11 18 28 20 8 25 13 16 10 14 6 9 9 16 12 19 4 5 7 12 11 8 10 22 30 48 52 57 60
44 44 34 20 17 10 7 14 18 5 3 16 5 5 11 9 2 12 28 10 14 13 12 11 8 18 25 16 9 3 5 11 9 5 5 1 8 8 3 15 29 42 51 46 52
42 42 34 19 12 3 8 11 1 5 3 5 5 3 4 7 1 8 11 6 7 8 2 13 2 4 7 7 4 18 5 7 4 4 8 6 7 10 6 9 14 36 48 54 50
41 40 31 13 7 9 5 2 4 6 5 9 6 9 6 7 8 8 16 18 14 12 17 9 21 8 9 13 6 10 6 5 5 2 7 3 8 19 14 15 10 20 30 49 50
41 28 13 9 12 8 1 3 6 4 6 5 9 7 3 7 2 4 14 22 6 6 5 17 14 19 18 28 14 16 10 7 8 7 9 2 10 11 5 2 21 19 17 28 50
34 12 7 3 7 13 5 2 3 1 7 16 15 5 6 3 3 7 14 20 23 23 13 10 10 3 10 5 17 11 13 4 3 3 6 5 12 20 7 16 26 19 15 18 33
25 8 17 9 15 17 4 1 2 6 8 3 6 8 7 8 4 4 8 5 8 24 12 9 8 0 4 9 9 8 20 7 2 7 14 7 10 13 12 7 8 13 18 22 27
10 8 12 17 13 6 3 0 6 12 10 5 2 5 5 5 5 1 6 3 3 3 18 14 9 7 5 10 17 9 7 5 3 3 8 9 9 8 8 10 18 19 20 24 30
8 4 10 11 4 4 4 2 8 9 2 8 5 9 6 5 5 3 2 4 1 10 13 13 5 17 27 3 2 1 5 11 8 11 3 5 15 4 3 9 16 25 21 23 26
7 7 4 12 4 4 4 5 6 6 8 4 5 7 1 7 5 3 5 1 7 4 10 15 10 8 7 7 5 10 9 7 8 3 11 7 11 9 15 16 16 14 19 30 39
6 2 7 8 9 4 5 4 10 8 5 10 9 5 11 10 9 5 4 2 9 5 2 16 6 9 14 3 3 12 15 12 7 7 12 10 15 25 26 26 26 21 15 17 32
11 6 5 4 7 5 2 5 8 11 5 14 2 17 11 5 2 4 5 9 3 5 4 5 2 5 4 8 8 10 14 15 11 4 9 4 11 18 22 30 32 38 16 13 24
7 6 6 3 6 3 4 3 6 9 6 7 15 27 14 6 6 8 14 4 5 5 2 2 4 4 4 8 3 10 11 13 7 5 9 9 21 7 32 27 25 23 24 19 17
13 10 5 6 5 2 2 4 2 15 4 10 21 15 11 7 26 37 26 28 17 11 6 4 5 3 3 6 9 8 13 12 8 7 7 8 8 26 26 21 14 23 21 21 23
Wind_Direction_500mb
9 5 359 353 347 339 334 328 322 321 319 318 314 309 304 296 282 269 260 253 256 219 201 212 203 282 349 338 332 339 314 359 44 181 117 151 132 146 108 140 125 185 150 156 155
4 359 355 351 345 338 333 327 322 319 318 317 316 311 309 308 297 258 263 254 243 204 205 220 198 322 353 319 139 308 313 339 237 183 156 168 146 149 141 151 115 93 129 153 159
1 357 352 347 343 337 331 325 320 317 316 314 316 312 313 320 310 226 250 219 193 182 195 204 26 28 329 277 201 181 269 292 317 233 158 129 138 149 150 190 179 150 146 156 162
358 353 349 344 341 336 328 322 318 314 313 312 316 312 313 315 172 318 232 181 179 181 207 195 357 23 283 311 225 281 274 262 313 29 177 164 150 155 170 164 178 164 160 161 166
354 350 346 342 338 334 327 320 312 309 309 305 308 311 317 285 256 352 147 162 176 194 211 217 237 276 301 355 204 243 273 216 225 225 203 146 165 149 189 109 154 160 162 167 171
348 346 344 341 337 334 328 316 310 306 299 294 294 300 305 270 228 176 144 163 183 208 223 231 106 328 294 311 285 267 290 293 208 154 155 162 153 148 148 136 149 162 171 173 176
341 342 341 341 338 336 328 317 312 304 288 278 276 281 277 251 223 180 148 151 172 220 258 273 285 279 327 316 309 281 269 287 68 140 90 140 170 178 157 150 155 168 176 184 186
337 337 340 340 339 338 329 323 311 310 288 259 261 279 259 243 218 181 165 167 193 231 237 287 289 276 262 303 313 20 201 348 109 168 112 177 236 131 167 157 163 176 179 192 197
334 335 337 340 340 342 334 330 312 327 259 242 257 260 253 208 231 219 214 214 264 237 233 228 3 239 270 267 359 28 323 321 333 195 131 206 251 169 178 184 171 183 189 193 203
332 332 336 340 342 349 341 325 316 304 235 256 247 266 233 175 173 194 207 218 219 189 178 199 206 230 189 309 316 313 317 309 290 136 169 194 243 176 188 192 194 189 195 199 205
334 331 334 340 344 360 360 336 334 296 294 233 229 256 281 266 263 205 202 202 200 197 202 184 213 223 235 213 298 281 280 293 301 149 189 242 236 189 196 202 202 206 200 205 211
338 333 332 339 344 1 20 58 35 324 305 289 263 254 247 246 310 191 175 172 182 216 163 204 232 199 145 154 260 256 290 313 324 18 261 288 276 226 197 209 206 200 206 211 215
341 336 333 337 341 350 209 18 353 343 263 295 275 263 237 217 230 207 179 172 165 195 198 224 242 161 208 185 272 283 293 320 312 30 99 320 280 194 218 224 219 217 211 213 216
337 337 336 339 10 336 240 340 337 342 314 302 158 301 184 161 214 202 182 174 163 204 173 246 199 205 192 258 229 291 336 311 337 270 328 356 304 276 225 219 223 217 215 214 215
335 335 332 322 316 327 298 322 323 342 173 351 76 119 167 198 101 177 183 180 180 164 193 209 198 197 222 245 193 350 35 68 85 99 283 139 273 270 287 245 222 213 215 219 218
332 329 320 306 298 249 313 316 209 255 231 48 86 50 176 223 111 109 170 149 131 138 237 247 299 238 198 171 236 170 126 70 85 352 290 68 283 300 220 240 217 216 219 218 217
331 325 310 294 249 285 308 145 210 225 345 17 352 336 274 210 199 163 169 179 188 204 228 248 243 219 183 232 130 183 197 292 259 193 273 112 243 265 258 251 219 186 216 214 213
333 328 309 264 249 243 209 174 216 26 338 342 324 305 219 170 156 149 170 189 189 152 145 212 232 196 184 216 217 197 228 232 267 266 309 313 248 312 250 269 227 236 240 208 209
340 342 28 236 211 189 142 160 20 209 322 330 316 19 67 121 197 177 197 200 212 194 223 180 247 219 209 154 197 157 207 349 214 121 266 270 272 280 250 251 243 240 211 197 201
350 101 38 88 125 136 84 111 255 235 304 313 349 2 343 351 221 170 183 152 219 202 221 198 264 42 91 170 68 234 139 177 193 263 272 239 275 272 297 223 206 221 211 193 186
13 90 78 86 114 53 70 42 277 256 242 259 269 294 300 305 323 121 154 181 256 91 199 174 229 191 235 199 180 154 184 76 152 249 278 296 275 223 282 246 208 216 205 201 204
62 85 125 39 66 36 78 299 314 311 331 273 274 251 251 296 283 232 169 233 227 165 173 194 203 239 248 163 343 227 222 199 219 189 240 305 274 169 45 355 312 279 252 222 217
58 76 91 15 84 61 359 302 270 319 325 322 282 230 209 280 294 249 250 149 47 171 174 173 212 225 218 170 145 208 180 177 110 137 187 236 276 113 76 54 23 322 302 256 253
37 91 45 61 67 26 4 354 325 321 289 311 300 346 321 256 225 289 281 269 344 359 239 155 158 233 247 261 130 169 171 176 205 200 159 235 294 299 348 359 355 328 298 285 247
38 55 28 36 62 18 312 346 327 358 355 6 113 357 293 296 258 230 294 302 130 76 72 243 218 218 301 254 192 142 161 173 208 164 234 56 261 328 343 332 323 310 283 257 224
68 33 11 22 320 308 353 50 356 338 309 13 6 337 355 62 26 304 356 332 359 330 203 182 149 163 56 8 290 139 129 141 153 161 265 293 286 61 331 321 321 322 309 283 207
49 37 30 7 354 280 91 359 8 349 241 279 339 324 313 359 313 284 256 274 275 309 325 325 136 143 152 3 327 189 189 178 149 197 191 251 306 332 332 334 346 338 336 304 280
Wind_Speed_850mb
23 23 23 23 23 23 23 23 24 24 26 25 24 26 25 22 19 24 31 21 7 13 15 11 11 4 11 3 4 5 3 3 3 6 8 25 10 12 16 30 9 5 20 37 54
25 26 26 26 26 26 26 25 25 25 25 25 24 25 25 23 22 24 22 24 14 15 14 6 5 6 4 3 1 1 2 5 2 1 5 28 16 27 12 33 14 30 37 57 57
26 28 29 29 29 29 28 28 28 27 25 25 23 23 23 21 11 2 16 18 16 17 15 9 3 4 3 3 5 5 3 5 5 7 8 13 25 16 22 22 19 45 55 57 56
29 30 30 31 31 32 31 30 29 29 26 25 22 21 21 14 2 4 10 22 22 19 16 8 2 1 5 5 5 6 12 15 10 3 7 12 28 17 26 4 25 52 66 60 57
30 30 32 33 34 33 32 32 30 28 26 24 21 18 18 9 9 3 11 24 22 20 15 6 2 4 10 6 3 8 7 4 5 5 8 26 17 8 18 6 40 53 58 60 55
32 33 34 35 36 36 33 32 31 28 24 21 18 16 13 9 6 5 14 21 18 18 16 15 2 7 16 5 8 8 14 6 2 16 21 22 14 15 10 31 46 56 55 56 53
34 35 36 37 38 37 34 32 29 25 21 17 16 14 19 21 7 12 21 16 11 7 14 16 16 13 19 18 6 10 3 7 7 10 6 21 9 12 31 36 46 48 51 51 49
35 36 36 38 39 38 33 27 21 20 13 12 13 13 10 7 20 19 24 19 13 12 11 10 12 14 9 18 9 6 3 8 4 7 8 7 3 8 34 42 40 43 49 45 46
38 38 36 37 37 34 25 26 14 15 7 10 11 10 7 10 15 21 24 16 11 14 16 6 7 7 5 8 4 7 15 19 8 8 8 11 1 17 34 33 37 42 46 50 46
40 39 36 36 36 24 24 16 14 9 4 10 17 7 11 12 6 17 21 23 14 8 8 9 8 7 5 4 8 18 17 12 14 5 10 9 13 23 36 37 38 42 43 48 49
41 40 36 33 34 18 19 9 9 5 16 14 4 7 12 11 13 17 22 28 24 11 13 11 12 20 10 4 4 10 16 24 21 4 6 6 10 25 35 40 41 42 45 47 51
43 41 36 29 27 15 10 10 15 16 19 22 31 42 38 16 7 17 22 21 15 21 7 11 29 13 8 9 7 9 18 23 9 4 5 5 21 25 39 51 56 55 49 50 48
45 43 36 25 15 14 1 14 25 21 7 12 8 10 8 31 14 15 32 21 10 16 16 28 11 11 7 5 10 13 14 21 19 2 5 17 14 8 22 39 45 49 53 52 54
45 45 37 21 2 15 3 16 26 12 5 3 1 1 7 11 11 18 28 20 8 25 13 16 10 14 6 9 9 16 12 19 4 5 7 12 11 8 10 22 30 48 52 57 60
44 44 34 20 17 10 7 14 18 5 3 16 5 5 11 9 2 12 28 10 14 13 12 11 8 18 25 16 9 3 5 11 9 5 5 1 8 8 3 15 29 42 51 46 52
42 42 34 19 12 3 8 11 1 5 3 5 5 3 4 7 1 8 11 6 7 8 2 13 2 4 7 7 4 18 5 7 4 4 8 6 7 10 6 9 14 36 48 54 50
41 40 31 13 7 9 5 2 4 6 5 9 6 9 6 7 8 8 16 18 14 12 17 9 21 8 9 13 6 10 6 5 5 2 7 3 8 19 14 15 10 20 30 49 50
41 28 13 9 12 8 1 3 6 4 6 5 9 7 3 7 2 4 14 22 6 6 5 17 14 19 18 28 14 16 10 7 8 7 9 2 10 11 5 2 21 19 17 28 50
34 12 7 3 7 13 5 2 3 1 7 16 15 5 6 3 3 7 14 20 23 23 13 10 10 3 10 5 17 11 13 4 3 3 6 5 12 20 7 16 26 19 15 18 33
25 8 17 9 15 17 4 1 2 6 8 3 6 8 7 8 4 4 8 5 8 24 12 9 8 0 4 9 9 8 20 7 2 7 14 7 10 13 12 7 8 13 18 22 27
10 8 12 17 13 6 3 0 6 12 10 5 2 5 5 5 5 1 6 3 3 3 18 14 9 7 5 10 17 9 7 5 3 3 8 9 9 8 8 10 18 19 20 24 30
8 4 10 11 4 4 4 2 8 9 2 8 5 9 6 5 5 3 2 4 1 10 13 13 5 17 27 3 2 1 5 11 8 11 3 5 15 4 3 9 16 25 21 23 26
7 7 4 12 4 4 4 5 6 6 8 4 5 7 1 7 5 3 5 1 7 4 10 15 10 8 7 7 5 10 9 7 8 3 11 7 11 9 15 16 16 14 19 30 39
6 2 7 8 9 4 5 4 10 8 5 10 9 5 11 10 9 5 4 2 9 5 2 16 6 9 14 3 3 12 15 12 7 7 12 10 15 25 26 26 26 21 15 17 32
11 6 5 4 7 5 2 5 8 11 5 14 2 17 11 5 2 4 5 9 3 5 4 5 2 5 4 8 8 10 14 15 11 4 9 4 11 18 22 30 32 38 16 13 24
7 6 6 3 6 3 4 3 6 9 6 7 15 27 14 6 6 8 14 4 5 5 2 2 4 4 4 8 3 10 11 13 7 5 9 9 21 7 32 27 25 23 24 19 17
13 10 5 6 5 2 2 4 2 15 4 10 21 15 11 7 26 37 26 28 17 11 6 4 5 3 3 6 9 8 13 12 8 7 7 8 8 26 26 21 14 23 21 21 23
Wind_Direction_850mb
9 5 359 353 347 339 334 328 322 321 319 318 314 309 304 296 282 269 260 253 256 219 201 212 203 282 349 338 332 339 314 359 44 181 117 151 132 146 108 140 125 185 150 156 155
4 359 355 351 345 338 333 327 322 319 318 317 316 311 309 308 297 258 263 254 243 204 205 220 198 322 353 319 139 308 313 339 237 183 156 168 146 149 141 151 115 93 129 153 159
1 357 352 347 343 337 331 325 320 317 316 314 316 312 313 320 310 226 250 219 193 182 195 204 26 28 329 277 201 181 269 292 317 233 158 129 138 149 150 190 179 150 146 156 162
358 353 349 344 341 336 328 322 318 314 313 312 316 312 313 315 172 318 232 181 179 181 207 195 357 23 283 311 225 281 274 262 313 29 177 164 150 155 170 164 178 164 160 161 166
354 350 346 342 338 334 327 320 312 309 309 305 308 311 317 285 256 352 147 162 176 194 211 217 237 276 301 355 204 243 273 216 225 225 203 146 165 149 189 109 154 160 162 167 171
348 346 344 341 337 334 328 316 310 306 299 294 294 300 305 270 228 176 144 163 183 208 223 231 106 328 294 311 285 267 290 293 208 154 155 162 153 148 148 136 149 162 171 173 176
341 342 341 341 338 336 328 317 312 304 288 278 276 281 277 251 223 180 148 151 172 220 258 273 285 279 327 316 309 281 269 287 68 140 90 140 170 178 157 150 155 168 176 184 186
337 337 340 340 339 338 329 323 311 310 288 259 261 279 259 243 218 181 165 167 193 231 237 287 289 276 262 303 313 20 201 348 109 168 112 177 236 131 167 157 163 176 179 192 197
334 335 337 340 340 342 334 330 312 327 259 242 257 260 253 208 231 219 214 214 264 237 233 228 3 239 270 267 359 28 323 321 333 195 131 206 251 169 178 184 171 183 189 193 203
332 332 336 340 342 349 341 325 316 304 235 256 247 266 233 175 173 194 207 218 219 189 178 199 206 230 189 309 316 313 317 309 290 136 169 194 243 176 188 192 194 189 195 199 205
334 331 334 340 344 360 360 336 334 296 294 233 229 256 281 266 263 205 202 202 200 197 202 184 213 223 235 213 298 281 280 293 301 149 189 242 236 189 196 202 202 206 200 205 211
338 333 332 339 344 1 20 58 35 324 305 289 263 254 247 246 310 191 175 172 182 216 163 204 232 199 145 154 260 256 290 313 324 18 261 288 276 226 197 209 206 200 206 211 215
341 336 333 337 341 350 209 18 353 343 263 295 275 263 237 217 230 207 179 172 165 195 198 224 242 161 208 185 272 283 293 320 312 30 99 320 280 194 218 224 219 217 211 213 216
337 337 336 339 10 336 240 340 337 342 314 302 158 301 184 161 214 202 182 174 163 204 173 246 199 205 192 258 229 291 336 311 337 270 328 356 304 276 225 219 223 217 215 214 215
335 335 332 322 316 327 298 322 323 342 173 351 76 119 167 198 101 177 183 180 180 164 193 209 198 197 222 245 193 350 35 68 85 99 283 139 273 270 287 245 222 213 215 219 218
332 329 320 306 298 249 313 316 209 255 231 48 86 50 176 223 111 109 170 149 131 138 237 247 299 238 198 171 236 170 126 70 85 352 290 68 283 300 220 240 217 216 219 218 217
331 325 310 294 249 285 308 145 210 225 345 17 352 336 274 210 199 163 169 179 188 204 228 248 243 219 183 232 130 183 197 292 259 193 273 112 243 265 258 251 219 186 216 214 213
333 328 309 264 249 243 209 174 216 26 338 342 324 305 219 170 156 149 170 189 189 152 145 212 232 196 184 216 217 197 228 232 267 266 309 313 248 312 250 269 227 236 240 208 209
340 342 28 236 211 189 142 160 20 209 322 330 316 19 67 121 197 177 197 200 212 194 223 180 247 219 209 154 197 157 207 349 214 121 266 270 272 280 250 251 243 240 211 197 201
350 101 38 88 125 136 84 111 255 235 304 313 349 2 343 351 221 170 183 152 219 202 221 198 264 42 91 170 68 234 139 177 193 263 272 239 275 272 297 223 206 221 211 193 186
13 90 78 86 114 53 70 42 277 256 242 259 269 294 300 305 323 121 154 181 256 91 199 174 229 191 235 199 180 154 184 76 152 249 278 296 275 223 282 246 208 216 205 201 204
62 85 125 39 66 36 78 299 314 311 331 273 274 251 251 296 283 232 169 233 227 165 173 194 203 239 248 163 343 227 222 199 219 189 240 305 274 169 45 355 312 279 252 222 217
58 76 91 15 84 61 359 302 270 319 325 322 282 230 209 280 294 249 250 149 47 171 174 173 212 225 218 170 145 208 180 177 110 137 187 236 276 113 76 54 23 322 302 256 253
37 91 45 61 67 26 4 354 325 321 289 311 300 346 321 256 225 289 281 269 344 359 239 155 158 233 247 261 130 169 171 176 205 200 159 235 294 299 348 359 355 328 298 285 247
38 55 28 36 62 18 312 346 327 358 355 6 113 357 293 296 258 230 294 302 130 76 72 243 218 218 301 254 192 142 161 173 208 164 234 56 261 328 343 332 323 310 283 257 224
68 33 11 22 320 308 353 50 356 338 309 13 6 337 355 62 26 304 356 332 359 330 203 182 149 163 56 8 290 139 129 141 153 161 265 293 286 61 331 321 321 322 309 283 207
49 37 30 7 354 280 91 359 8 349 241 279 339 324 313 359 313 284 256 274 275 309 325 325 136 143 152 3 327 189 189 178 149 197 191 251 306 332 332 334 346 338 336 304 280